RH
24 42 54 68 76 70 61 57 61 67 68 68 70 67 67 73 74 71 66 60 58 58 57 57 56 53 51 49 48 46 46 46 41 30 19 15 15 15 14 14 14 14 15 16 18 22 27 39 53 56 55 56 59 55 38 22 15 15 29 52 61 61 64 64 63 70 81 88 89 90 89 82 77 78 83 88 95 100 100 100 100 100 101 99 100
17 32 44 59 75 77 68 61 59 61 66 68 68 67 66 69 74 73 70 63 58 58 58 57 57 54 52 51 50 50 49 47 45 39 28 18 15 15 15 14 14 15 14 14 15 15 24 43 55 55 57 63 69 70 53 31 19 18 34 55 63 63 65 66 67 71 77 80 83 91 93 87 81 79 77 79 87 95 99 100 99 98 100 99 100
12 15 29 40 59 74 73 66 56 47 55 65 69 70 69 69 73 74 73 68 59 58 57 54 53 53 54 54 53 53 52 49 47 47 43 33 21 15 15 14 14 15 15 14 14 14 24 48 64 64 64 66 72 79 74 58 46 43 52 65 70 68 67 68 68 72 76 77 83 91 94 88 77 69 66 64 70 81 90 97 98 98 99 100 100
31 7 12 23 40 59 63 63 61 53 54 65 71 71 70 69 73 74 74 73 64 60 58 55 55 55 56 57 58 59 58 56 58 56 53 46 32 20 16 15 15 15 16 16 17 25 40 62 77 79 77 75 77 81 83 79 76 76 79 81 81 77 74 72 70 72 77 81 84 88 92 91 75 60 60 62 65 72 77 84 93 96 97 97 98
70 27 7 11 23 38 48 53 58 56 53 59 65 64 63 64 70 75 77 75 70 65 62 60 59 57 58 62 67 69 67 67 68 63 57 50 38 24 16 15 16 16 18 21 26 39 56 75 86 87 85 84 84 87 87 87 88 91 93 92 91 87 83 81 78 74 75 79 83 85 86 85 72 63 66 66 67 74 75 74 81 88 92 92 92
96 62 23 9 11 19 41 61 67 68 67 67 69 68 68 69 71 75 78 77 74 70 66 64 61 58 57 60 64 68 71 73 69 58 51 45 36 27 21 19 19 20 23 28 36 48 63 80 89 89 88 87 87 91 91 90 91 94 96 97 96 94 91 91 88 83 79 78 82 83 80 75 69 68 73 73 73 78 78 73 72 77 85 87 86
102 89 59 38 26 14 26 59 80 85 84 81 80 81 81 81 78 77 78 79 78 75 71 67 62 60 58 57 59 60 63 69 67 59 53 48 44 41 34 27 25 27 32 38 44 52 65 81 90 90 90 89 89 91 91 89 90 92 95 96 98 97 96 95 95 93 87 80 80 81 80 77 73 72 77 83 82 80 80 78 74 73 79 83 82
101 100 92 83 73 54 44 64 88 94 94 91 90 90 88 87 85 82 81 83 87 87 83 79 71 63 61 62 64 61 60 64 66 66 61 54 52 53 46 38 34 34 37 41 44 48 57 72 86 90 89 90 89 88 87 86 85 88 92 94 96 96 95 94 96 97 94 86 81 78 78 77 76 78 83 89 89 86 84 82 78 73 75 79 79
98 100 101 99 97 92 85 89 98 99 99 99 97 97 96 95 92 89 87 90 97 95 87 85 82 76 71 70 70 65 61 63 66 69 68 62 56 56 58 53 44 39 39 39 39 41 47 59 77 85 86 87 84 78 77 79 82 85 89 89 89 89 89 90 92 94 94 93 88 82 79 79 78 81 85 88 89 89 86 82 79 74 71 76 78
96 97 98 101 100 100 99 99 100 100 100 100 100 100 99 99 98 96 95 96 100 94 83 79 78 78 78 76 75 71 65 63 65 68 72 71 62 59 67 68 57 48 46 44 42 44 46 53 69 77 78 79 77 73 70 71 73 77 83 85 84 85 86 88 89 89 88 89 91 89 84 81 79 80 82 83 85 86 84 80 79 76 71 72 76
93 91 91 95 98 100 101 100 100 100 100 100 100 100 100 100 100 99 99 100 101 98 92 86 77 72 73 76 76 74 72 68 64 64 69 73 66 61 67 74 72 65 61 57 50 49 48 49 59 67 68 67 66 68 67 63 65 72 81 82 77 75 78 84 88 89 88 87 89 90 87 83 79 78 77 76 77 79 80 80 81 82 79 73 72
87 86 84 85 87 91 95 97 99 99 99 100 99 99 100 100 100 100 99 100 100 99 97 96 91 82 73 72 74 76 81 83 79 72 70 71 65 59 62 73 83 81 76 70 58 50 48 46 51 58 59 57 55 59 61 59 62 72 80 75 64 58 60 70 81 86 89 91 91 88 83 80 77 75 75 73 71 72 75 80 83 86 85 79 75
82 82 83 82 80 80 83 88 91 94 96 96 96 98 100 100 100 100 100 100 100 101 100 99 99 96 86 75 70 70 75 83 91 91 88 84 74 63 57 64 81 87 81 72 58 50 49 46 47 52 54 54 54 54 56 59 64 72 77 71 59 49 45 50 63 74 82 87 91 92 86 77 71 71 73 69 67 69 73 77 79 83 86 85 82
79 77 78 80 80 78 79 82 83 86 89 88 87 88 88 88 86 89 96 98 95 89 88 90 92 94 95 90 84 80 77 75 79 84 87 90 89 82 70 63 72 81 77 67 56 52 51 47 44 47 52 56 57 57 60 64 67 71 75 72 60 48 39 35 43 61 73 80 86 92 90 77 65 66 70 68 68 71 73 74 75 80 86 87 87
73 73 73 75 76 76 76 77 77 79 82 81 79 77 75 75 74 75 80 88 92 84 72 70 74 76 76 81 84 85 86 84 79 75 71 70 75 82 86 84 82 82 78 70 63 61 59 53 49 46 46 50 53 57 61 63 63 66 69 69 60 49 38 28 30 47 62 70 78 87 92 81 63 60 66 69 72 75 78 78 77 82 88 88 88
67 68 69 69 71 72 73 74 74 74 75 75 75 75 78 82 82 79 74 76 88 94 83 71 72 76 77 79 79 77 80 84 83 84 78 63 54 57 66 79 88 90 87 79 72 71 69 64 59 53 46 44 44 47 52 53 54 56 58 58 52 43 36 26 23 34 47 59 69 79 88 80 61 56 64 71 76 80 84 86 81 81 88 91 90
71 68 66 66 67 67 68 70 72 73 72 72 72 73 78 83 86 88 86 81 82 88 88 81 79 85 90 91 88 82 77 75 76 86 88 72 59 53 47 53 71 86 92 91 86 83 78 69 63 60 54 47 42 39 41 43 47 48 48 47 42 34 31 25 20 24 35 48 59 69 77 73 60 58 66 75 81 84 89 90 81 74 80 90 95
78 72 67 66 65 64 63 64 67 70 71 71 71 72 73 75 78 82 87 88 87 88 89 87 83 83 87 91 91 89 81 75 75 81 83 74 67 64 53 46 54 68 82 92 92 85 76 68 66 67 63 55 47 40 36 38 44 47 45 42 37 32 30 28 23 21 27 40 49 59 69 71 64 62 68 78 86 90 92 87 75 67 70 80 91
81 75 70 68 66 64 62 59 60 62 66 68 69 70 71 71 72 73 75 76 78 85 88 87 84 81 82 85 88 88 82 74 71 70 69 64 61 64 60 52 48 51 66 85 92 87 78 71 69 72 71 65 57 50 46 46 48 48 48 49 47 44 42 42 38 28 25 33 42 52 66 73 72 69 69 72 78 85 87 80 68 58 56 61 73
78 75 74 71 68 67 63 60 59 57 59 62 63 67 68 69 70 69 70 70 69 74 79 81 82 82 83 84 83 83 78 71 66 63 61 56 53 56 56 55 53 49 58 74 83 82 77 72 72 73 75 73 66 62 62 63 63 59 56 61 65 65 63 62 60 48 35 34 39 48 63 74 79 80 76 72 69 69 70 67 60 51 45 45 53
79 78 77 75 72 70 65 61 59 56 55 56 57 60 62 65 67 66 66 68 68 69 69 70 72 74 78 82 82 81 80 76 71 69 67 60 54 53 54 58 61 56 57 64 67 68 67 69 72 73 76 76 73 72 75 79 81 72 59 59 65 71 72 73 75 69 54 43 40 46 59 71 79 83 81 79 73 66 62 57 50 43 39 41 48
82 81 80 78 75 70 66 62 59 55 53 52 52 53 56 59 61 62 63 65 66 67 67 66 66 66 68 71 74 76 78 79 77 75 74 69 62 58 58 60 60 55 54 57 58 61 63 66 70 73 76 79 80 82 86 88 88 77 58 50 55 64 69 73 78 78 68 54 44 46 57 66 74 81 82 82 77 70 66 61 52 43 38 42 49
80 80 78 76 72 67 64 61 58 56 54 52 51 50 52 55 56 58 59 60 63 65 65 65 65 65 65 65 67 70 72 75 76 77 77 76 73 69 66 65 61 58 58 58 58 60 62 65 69 71 75 81 84 89 95 95 91 82 67 55 54 60 67 72 75 75 72 65 52 49 58 65 69 75 79 82 83 77 70 64 60 57 53 51 51
75 75 74 70 68 66 63 59 57 57 56 56 58 56 54 54 55 57 58 58 60 61 63 64 64 65 65 64 64 65 67 70 72 74 75 76 76 74 72 70 68 68 68 67 66 65 64 64 66 68 71 75 79 85 94 98 96 91 83 70 61 62 67 72 73 73 78 77 63 53 58 65 68 68 68 73 82 84 75 61 54 56 59 60 59
73 73 72 70 69 68 66 62 60 62 64 65 67 67 65 63 63 64 63 62 60 58 60 62 62 64 64 64 65 63 64 65 66 67 68 68 69 70 71 71 71 72 72 72 72 71 68 66 66 69 71 71 70 73 82 91 94 95 92 84 75 69 69 70 70 70 75 80 73 61 57 61 67 66 63 64 71 78 77 61 47 45 49 53 58
75 74 74 74 74 73 71 67 65 67 72 77 78 77 74 72 72 74 72 69 65 60 60 60 61 63 63 63 64 64 64 64 63 64 63 63 64 64 65 67 69 71 72 74 76 75 75 74 73 74 76 75 72 69 72 78 83 88 90 89 85 80 74 70 66 64 66 72 73 66 61 61 65 64 61 61 62 67 72 63 45 38 39 43 51
75 73 73 76 78 77 75 72 69 68 69 75 81 82 80 77 77 78 76 74 71 66 62 60 60 62 64 64 64 63 64 63 63 63 63 62 62 61 62 63 64 66 68 70 72 74 76 76 75 77 79 81 80 78 78 77 76 78 80 81 81 80 76 71 64 59 60 66 67 64 62 62 61 58 55 58 60 61 67 66 50 35 33 37 43
75 72 70 74 78 79 79 76 72 69 68 70 75 79 82 85 88 87 82 78 76 72 68 65 63 63 64 65 65 64 64 64 63 63 63 63 62 62 62 62 62 63 63 65 67 69 71 73 74 74 75 78 81 83 84 83 78 74 72 72 72 72 71 69 65 59 57 61 64 61 59 61 60 54 50 53 58 60 64 68 58 42 34 34 37
77 72 68 70 76 79 81 79 74 70 69 71 74 79 82 87 93 95 91 87 84 79 74 71 69 68 68 68 67 67 66 65 65 64 63 63 62 62 62 62 62 62 62 63 63 64 66 67 69 70 70 71 74 76 79 80 77 71 68 67 66 65 64 63 62 60 56 57 62 62 56 54 53 51 49 50 55 59 61 65 66 57 44 37 36
77 75 68 67 71 76 77 76 73 70 69 70 73 77 80 84 91 95 94 91 86 82 79 77 74 73 72 72 71 70 69 67 66 65 64 63 62 62 62 61 62 62 62 62 62 62 63 62 63 65 65 66 67 69 72 72 71 69 66 65 63 62 61 59 58 57 54 53 58 62 60 55 52 51 52 52 52 56 60 62 66 68 60 50 44
77 76 71 66 68 73 72 71 71 69 69 70 71 73 74 75 79 82 84 85 84 81 79 77 76 75 73 73 73 72 71 69 68 66 65 64 63 62 61 61 60 60 60 61 61 61 61 61 61 61 61 61 61 62 63 65 66 68 68 67 66 63 60 58 56 55 54 52 52 57 61 62 62 59 58 56 52 51 56 60 64 69 68 60 55
74 75 71 64 64 71 72 72 72 70 69 68 68 69 69 69 69 70 74 77 78 78 77 75 75 74 72 72 71 70 71 70 69 68 66 64 63 62 61 60 59 59 58 58 59 59 59 59 59 59 59 59 59 58 58 59 60 63 65 68 71 72 73 72 66 59 54 52 51 53 56 61 66 64 61 61 56 49 50 55 59 66 70 66 60
71 74 70 61 61 67 71 73 73 72 71 70 67 65 65 66 67 66 67 70 71 72 73 73 74 73 72 70 69 68 67 67 67 67 66 65 63 62 61 60 58 58 57 56 55 55 55 55 55 56 55 54 54 54 54 55 56 57 60 64 67 73 81 87 87 80 70 63 58 57 58 59 62 64 64 62 58 52 49 50 51 58 66 69 66
67 74 69 60 58 61 65 71 75 75 73 70 69 66 63 62 64 64 64 64 64 67 70 72 73 74 73 70 68 65 63 63 63 63 62 62 61 60 59 58 57 56 55 55 54 53 52 52 52 53 53 52 50 48 47 48 49 51 54 58 61 65 70 78 86 90 90 87 81 76 71 65 61 62 64 62 57 53 51 49 49 52 54 57 60
64 71 69 61 58 59 60 65 74 78 75 70 68 68 64 59 60 62 61 57 55 58 64 69 71 72 74 73 71 68 64 61 60 59 57 56 55 53 53 52 52 52 52 51 50 50 49 48 48 48 48 47 45 44 44 42 42 43 45 50 54 57 59 63 68 74 82 89 93 94 91 84 76 69 65 62 57 53 50 49 49 52 52 50 50
60 68 69 61 58 60 59 60 66 74 75 69 68 69 66 61 57 57 56 52 47 47 53 62 67 69 72 75 75 74 71 69 66 62 59 56 53 50 48 47 45 43 43 42 41 40 39 38 38 39 39 38 36 36 37 37 38 39 41 45 49 52 55 57 58 61 65 72 81 90 96 98 95 84 73 66 60 56 56 57 55 56 56 55 53
57 65 67 62 59 60 61 59 62 67 71 69 68 68 68 63 57 52 50 47 42 41 46 56 63 66 70 75 77 76 75 75 75 72 67 61 56 52 47 45 43 39 36 35 34 33 33 32 32 33 33 33 32 31 32 33 34 35 37 39 43 46 49 52 53 56 58 60 64 72 80 89 95 92 81 70 65 65 66 67 67 65 64 61 59
57 62 63 62 61 61 61 62 61 63 67 68 68 68 68 64 57 51 48 44 41 40 42 50 57 60 64 72 77 78 76 77 81 83 79 71 62 55 50 47 44 39 34 33 31 30 28 27 27 28 29 31 32 33 34 36 36 38 40 40 40 41 42 44 46 50 53 55 57 59 64 72 80 85 82 75 74 77 78 76 73 71 71 71 66
55 58 60 61 62 61 62 64 62 63 65 66 67 67 66 64 60 53 46 43 42 41 40 44 51 54 58 64 72 78 79 81 88 94 92 85 72 60 54 50 47 42 35 31 30 29 27 26 28 31 35 39 40 40 41 43 44 46 47 48 47 46 43 41 42 43 46 50 53 53 56 61 66 70 74 75 78 83 85 80 73 75 84 84 74
54 57 58 61 64 62 62 65 63 63 65 65 66 66 62 60 59 52 44 42 45 45 42 41 44 48 54 60 68 75 80 85 94 98 98 95 85 71 61 56 53 50 43 36 34 35 33 32 35 38 41 44 47 47 49 51 53 54 56 57 58 55 51 47 44 43 44 46 49 51 51 54 58 60 62 66 71 79 87 86 82 89 97 89 75
54 55 55 60 66 64 62 64 62 63 65 65 65 64 59 55 53 48 42 39 43 45 43 41 41 42 48 57 67 76 85 93 99 100 99 98 95 86 75 66 61 58 53 46 44 44 43 39 39 42 45 49 52 55 58 60 62 63 62 65 67 63 58 56 53 49 47 46 48 52 51 49 52 56 57 59 63 70 83 92 96 100 100 90 84
54 54 52 56 63 65 63 61 60 62 63 63 63 60 56 51 48 44 38 35 38 40 39 39 39 38 45 58 69 80 90 97 100 100 99 99 98 95 86 78 72 68 64 59 55 53 51 45 42 45 50 53 54 57 62 66 71 74 72 72 76 71 64 64 64 60 56 51 49 53 56 54 52 52 54 56 57 60 68 77 85 92 97 98 98
54 53 53 54 58 63 63 59 59 61 61 61 60 57 54 50 45 40 34 31 34 35 34 36 35 35 44 59 72 82 91 97 100 100 100 99 99 96 90 86 83 78 72 66 61 59 58 53 49 49 51 54 57 60 64 67 71 77 80 81 84 80 72 71 72 69 65 60 54 54 58 61 59 55 54 54 54 55 57 59 62 68 78 90 97
53 53 55 55 56 60 60 58 59 60 60 59 57 55 53 49 43 37 30 28 30 30 30 32 30 32 43 56 71 84 92 97 100 100 100 100 99 97 94 92 91 88 82 74 68 66 66 61 58 57 56 58 62 64 66 68 71 77 83 86 88 84 77 76 78 76 74 71 65 59 58 60 62 61 59 56 53 51 52 53 53 54 57 66 78
55 53 55 56 56 57 57 57 59 59 58 58 56 56 54 49 42 36 28 27 28 27 27 27 26 30 39 49 65 84 94 98 100 99 100 100 99 99 98 98 98 97 95 89 80 74 73 70 68 67 64 63 65 65 67 71 76 83 89 91 89 83 78 78 80 79 79 77 74 69 63 59 59 60 62 64 61 56 53 51 50 52 53 55 66
56 53 53 55 56 55 55 56 59 58 57 55 55 55 54 49 44 38 32 31 30 28 27 26 27 35 42 49 66 87 95 99 100 99 100 100 99 100 100 99 100 100 99 97 90 81 79 78 76 73 71 70 70 69 70 75 84 93 96 97 96 90 84 84 84 83 83 81 78 77 73 68 64 60 60 63 64 62 60 59 59 61 60 59 66
56 54 52 53 52 52 54 55 56 57 55 51 50 52 51 47 43 37 31 30 29 28 27 26 32 43 49 56 77 95 98 99 100 99 100 100 99 100 100 99 100 100 99 100 98 93 91 90 86 81 79 79 77 74 75 84 93 100 100 99 100 98 92 87 85 84 83 80 75 75 75 73 71 67 63 63 64 66 67 66 65 65 63 61 66
57 54 52 52 51 52 55 55 55 57 53 43 36 36 39 41 40 33 26 24 24 25 27 29 38 48 49 56 80 98 99 99 101 99 99 100 100 100 100 100 100 100 100 100 100 99 99 98 95 92 91 90 86 80 84 94 99 100 100 99 100 101 98 94 90 85 82 78 76 76 77 78 78 74 67 64 64 66 69 68 65 62 59 57 60
58 56 54 53 52 52 55 55 54 55 49 33 23 22 24 29 32 29 25 22 22 25 29 34 45 53 50 52 75 96 100 99 100 100 99 100 100 100 100 100 100 100 100 100 99 99 99 99 99 99 99 98 94 89 92 99 100 99 100 100 99 100 100 99 97 93 89 86 83 82 82 83 85 84 78 71 66 65 68 69 67 64 61 56 53
59 57 54 53 52 53 55 54 54 53 44 30 23 22 20 19 22 25 25 24 24 29 35 42 55 63 57 54 72 94 101 100 99 100 100 100 100 100 100 99 100 100 99 100 100 99 99 100 99 99 99 100 100 97 97 100 100 99 100 100 100 100 100 100 100 99 97 95 93 91 88 85 84 86 86 81 76 72 71 71 68 63 61 57 54
61 57 53 52 52 52 54 53 52 50 41 29 26 24 18 14 16 20 22 23 28 35 41 48 63 74 70 67 78 92 97 99 100 99 100 100 99 100 100 99 100 100 99 100 100 99 100 100 100 98 97 96 98 100 99 99 100 100 100 99 99 99 97 97 99 100 99 99 97 97 97 93 88 87 87 86 85 83 81 82 81 76 68 59 53
Wind_Speed
14 14 18 23 25 24 23 23 23 24 25 26 26 25 26 27 27 26 28 32 34 33 32 32 32 32 34 34 33 31 30 29 27 25 23 23 24 24 25 25 25 25 25 25 24 23 21 19 18 18 18 18 17 16 17 20 22 21 20 20 19 17 14 11 11 12 12 12 12 11 10 10 11 12 13 13 12 12 11 10 9 9 7 6 6
12 12 14 19 23 24 24 24 24 24 26 28 28 27 27 28 28 27 27 31 34 33 31 30 30 30 33 34 33 31 29 28 28 26 24 23 24 25 24 24 24 25 25 25 25 23 21 20 19 18 18 18 16 15 16 19 21 22 21 21 20 18 16 13 11 12 13 13 12 12 12 12 14 15 15 15 15 14 13 12 11 10 8 6 6
12 11 12 15 19 23 25 26 25 24 26 29 29 28 28 29 30 29 28 30 32 31 29 28 26 27 29 30 30 29 27 26 27 27 26 25 24 24 24 24 24 25 25 25 24 23 22 19 17 16 16 17 16 16 17 19 20 21 20 20 18 17 17 15 13 13 15 14 13 14 14 15 16 15 14 14 14 14 15 14 13 12 9 8 7
14 11 11 12 16 21 24 27 28 27 28 30 31 30 29 30 31 31 31 30 31 31 29 28 26 26 25 26 27 27 26 25 26 27 27 25 24 24 24 24 25 25 25 25 24 22 21 18 15 13 14 15 16 17 18 19 19 19 18 17 17 17 17 17 15 15 17 17 14 14 15 16 16 14 12 13 12 13 15 16 15 14 12 11 10
17 11 11 12 14 19 23 25 27 28 28 30 31 31 30 30 31 32 33 31 30 31 31 30 28 27 26 26 27 28 28 28 27 27 25 25 24 23 24 24 25 26 25 24 23 22 20 17 15 14 13 14 16 18 20 20 19 18 18 17 17 18 17 17 17 17 19 19 18 17 15 15 16 14 12 11 11 14 17 16 15 15 14 14 13
18 13 10 13 14 18 21 24 26 26 26 29 30 31 32 32 32 33 34 34 32 32 32 32 31 29 28 29 29 29 31 31 28 25 24 24 24 23 23 24 25 26 25 23 23 22 19 17 16 15 14 13 15 18 20 21 21 19 18 19 19 19 19 20 20 20 20 21 23 23 22 20 19 17 15 14 15 17 17 17 16 14 14 16 16
20 16 11 11 13 17 21 23 25 25 26 28 30 31 33 34 35 36 37 37 36 35 35 34 33 31 30 31 30 29 30 30 28 25 24 24 25 26 25 25 25 25 24 23 22 22 19 17 16 16 15 14 15 17 19 20 22 21 19 19 20 20 21 23 23 22 22 24 25 26 26 25 24 22 21 18 17 18 19 20 19 16 14 15 16
21 17 14 11 11 12 16 20 22 24 26 27 28 30 31 34 36 38 39 40 40 39 37 36 34 32 32 32 33 31 30 29 27 25 24 24 26 27 26 25 25 25 24 23 23 23 21 18 17 16 16 17 17 17 18 19 20 22 22 21 21 21 22 23 24 24 25 26 26 26 26 26 25 25 24 21 19 20 22 22 21 18 16 15 15
21 19 16 12 9 7 7 13 17 20 23 25 26 27 29 32 35 38 40 41 41 39 36 35 35 34 34 35 34 33 31 30 28 27 24 24 26 27 27 26 25 24 23 23 23 23 22 21 18 18 19 19 19 19 19 19 19 19 21 22 22 23 23 23 23 25 27 27 27 27 26 25 26 26 26 24 23 23 24 23 22 20 19 17 15
21 21 18 14 11 8 2 4 8 11 15 19 22 24 26 28 31 35 38 38 38 37 37 37 36 36 36 37 36 34 32 30 29 29 27 26 26 28 28 27 25 24 23 23 23 23 23 23 21 21 21 21 22 22 22 21 20 18 18 20 22 23 23 23 22 23 25 27 28 28 28 27 27 27 27 26 25 24 24 24 22 21 22 21 18
20 22 20 17 16 12 7 4 2 3 4 8 14 20 24 25 27 29 33 34 33 35 37 39 39 38 38 37 36 35 33 32 31 30 30 28 27 28 29 29 28 26 24 23 22 22 23 24 24 23 23 24 24 24 23 22 20 18 16 17 20 22 24 24 22 22 23 25 27 29 31 30 29 29 28 26 25 25 25 25 23 23 24 24 22
21 23 22 20 18 16 14 12 9 8 8 7 5 7 14 18 20 23 26 29 29 29 31 34 34 36 39 37 36 34 32 31 31 31 32 32 30 28 29 32 32 28 26 23 21 21 22 23 24 24 24 24 25 25 23 21 19 17 16 17 18 20 22 24 24 23 23 24 25 27 30 32 33 31 29 27 26 25 25 26 25 24 25 26 24
24 25 25 24 21 18 18 17 14 12 12 11 11 9 7 7 8 14 19 23 25 23 23 28 31 32 35 36 34 34 32 31 30 30 31 32 31 30 30 32 33 31 28 24 21 20 20 22 24 25 25 24 23 22 21 19 19 18 17 17 19 20 21 23 24 23 23 24 24 25 27 31 34 32 29 27 25 24 25 26 26 25 26 26 26
26 27 26 26 24 20 20 21 18 16 14 12 11 10 8 6 3 2 8 14 21 19 15 21 26 27 28 29 29 30 31 31 30 29 30 29 29 29 30 32 32 31 28 24 21 19 18 19 21 22 23 23 22 21 20 19 20 19 18 18 20 21 21 22 23 23 23 24 24 24 25 29 33 33 30 27 25 24 24 25 25 25 26 27 27
26 27 26 26 25 20 18 20 20 19 16 14 12 11 9 6 5 4 2 4 10 12 13 17 19 19 22 24 25 26 28 29 30 31 30 30 30 30 29 30 30 30 28 25 22 20 20 20 20 21 22 23 23 22 21 21 21 21 20 20 21 22 22 22 23 23 24 24 24 24 25 27 30 32 31 29 26 24 23 23 23 24 26 28 28
25 26 26 25 24 21 18 16 17 19 18 16 15 13 12 9 6 4 3 4 5 6 11 15 16 16 19 21 23 24 25 26 28 30 29 30 31 31 29 30 31 30 29 27 24 23 23 24 24 24 24 25 25 25 24 23 23 24 23 22 22 22 23 23 24 24 24 24 24 24 24 26 28 31 31 29 27 25 23 22 23 23 25 27 28
25 26 25 24 23 21 19 17 16 17 17 18 17 15 13 13 10 8 4 2 7 7 7 10 13 14 17 19 21 23 24 24 25 27 28 28 30 29 28 30 32 32 29 26 26 26 27 26 26 26 26 26 26 25 26 25 24 26 25 23 22 22 22 22 23 24 25 24 25 25 25 25 26 29 31 30 28 26 24 23 23 23 24 25 26
23 24 23 23 22 20 19 17 16 16 16 16 16 14 12 11 11 10 8 5 2 5 6 7 10 12 15 18 20 21 23 24 23 25 27 27 26 26 26 27 30 31 30 26 26 28 28 26 26 26 27 27 26 25 26 26 26 26 25 23 20 19 21 21 21 23 25 25 26 26 25 25 26 27 29 28 27 27 25 24 23 23 24 25 25
22 23 23 22 21 20 19 17 15 14 13 13 13 12 10 10 11 10 7 7 5 1 3 5 8 10 14 16 18 19 21 23 23 24 26 25 24 24 26 27 27 29 31 29 26 28 29 27 26 27 27 27 27 26 26 26 26 25 24 22 20 19 20 21 21 22 24 25 26 27 27 26 26 27 27 26 25 25 24 24 24 24 25 27 26
22 22 22 21 20 20 19 18 16 14 12 11 9 9 9 8 8 7 5 3 3 4 2 0 3 6 10 13 15 16 18 20 21 22 23 23 23 23 25 26 25 27 30 30 27 29 30 29 28 28 27 27 26 26 26 26 26 25 24 23 21 20 21 22 22 22 23 25 27 27 27 27 27 28 29 26 24 23 24 23 24 24 25 26 27
20 20 20 20 20 20 19 17 16 14 12 10 8 8 8 6 4 4 5 4 3 4 4 4 3 2 5 8 11 13 14 16 17 18 20 21 23 24 24 24 24 26 28 29 28 29 30 31 31 30 28 28 27 26 26 27 26 25 24 24 23 22 22 22 23 22 23 26 28 27 27 27 27 29 30 29 26 23 24 24 24 25 26 26 27
18 18 19 19 20 20 19 17 15 14 12 11 9 8 8 7 6 6 8 8 6 5 4 5 4 4 4 4 6 8 10 12 13 14 15 17 20 23 24 24 25 26 28 28 29 30 31 32 32 30 29 29 29 28 28 29 28 25 24 24 24 23 23 23 23 23 23 25 28 29 28 27 27 29 31 31 30 26 25 25 26 26 27 28 28
16 17 18 19 20 21 20 19 17 15 13 11 10 9 9 9 9 9 10 10 9 7 5 4 4 4 4 4 4 4 6 8 10 10 11 13 16 19 21 23 25 26 28 29 30 31 32 33 33 31 30 30 30 30 30 30 30 27 26 25 24 24 24 24 24 24 23 25 28 30 29 28 28 29 31 33 34 31 28 26 27 27 28 29 29
14 16 17 19 21 23 23 23 21 18 16 13 11 10 9 8 9 10 11 11 11 10 8 7 5 4 4 4 4 4 4 6 7 8 9 10 12 14 18 21 23 25 27 28 30 31 32 32 32 31 31 30 31 31 31 31 30 28 27 26 26 26 25 25 25 25 25 26 28 30 31 30 30 30 31 33 35 36 33 28 26 27 29 30 30
14 16 18 20 22 24 26 26 24 21 18 16 13 12 10 9 9 9 10 11 11 12 12 11 10 8 7 5 5 4 5 6 7 7 8 9 10 11 14 17 20 22 24 25 26 27 28 30 31 31 31 30 31 31 31 31 30 28 27 27 27 28 27 27 26 26 27 28 28 30 30 31 32 32 31 32 34 37 37 31 25 23 26 29 30
15 16 16 18 20 22 24 26 26 25 22 18 15 14 13 12 11 10 10 11 11 12 12 13 13 12 11 9 8 6 6 6 7 8 9 10 11 12 13 15 17 19 20 21 22 23 25 26 28 29 28 28 29 29 30 30 30 29 28 28 29 29 29 29 28 28 29 29 30 30 30 31 33 33 32 32 32 34 37 35 26 20 20 24 28
13 15 15 15 17 19 21 24 25 26 24 21 18 16 15 14 13 12 11 11 11 12 12 12 13 13 13 12 12 11 9 8 8 8 9 10 12 13 14 15 16 18 18 20 21 22 23 24 25 26 26 26 26 27 27 28 29 30 30 30 30 31 31 31 31 31 31 32 32 32 32 32 33 34 33 33 33 34 36 37 31 23 20 22 24
12 14 15 14 14 15 17 19 21 23 24 23 21 18 16 15 15 14 13 12 11 12 11 11 12 13 13 14 14 14 13 12 12 11 11 11 12 13 14 15 16 16 17 19 20 21 22 23 24 25 26 26 25 26 26 27 28 30 31 31 32 32 32 33 34 34 34 35 35 34 33 33 34 35 35 35 36 36 37 38 35 29 25 23 23
10 12 14 14 13 13 13 14 16 18 20 22 22 21 19 18 17 16 15 13 12 11 11 11 11 12 13 14 14 15 16 15 15 15 15 14 14 14 15 16 16 16 17 18 19 20 21 22 23 24 25 26 26 27 27 28 29 31 32 32 33 33 32 33 34 35 36 37 37 37 36 35 34 34 37 38 39 39 39 40 39 36 31 27 26
7 10 12 13 12 12 12 12 13 15 16 18 19 20 20 20 19 18 17 15 13 11 11 10 10 11 12 13 15 16 17 17 18 19 19 19 19 19 19 19 19 18 19 19 20 20 21 22 23 23 24 25 26 27 28 28 30 31 32 33 33 33 33 33 33 35 36 37 39 39 39 37 36 35 37 39 40 41 41 41 41 40 37 33 31
5 7 10 12 12 11 12 12 13 14 14 15 16 17 19 19 20 19 18 17 14 12 11 10 10 10 11 13 15 16 18 18 19 20 21 22 23 23 24 24 24 23 23 23 23 23 23 23 24 24 25 26 27 28 28 29 29 30 31 32 33 34 34 34 34 35 37 38 39 41 41 40 39 39 40 41 42 42 42 42 41 41 40 38 35
5 6 9 12 12 11 11 11 13 13 14 14 14 15 16 17 18 19 19 18 17 15 13 11 11 10 11 12 14 17 18 20 21 22 23 24 26 26 27 28 28 28 28 28 28 27 27 27 27 28 28 28 28 28 28 29 30 30 31 31 33 34 34 35 36 37 38 39 40 40 41 41 41 42 43 44 45 45 44 43 42 41 41 41 39
5 6 9 12 13 12 11 10 11 13 14 14 14 15 15 14 15 16 18 18 18 17 16 14 13 12 11 11 12 15 17 19 22 23 25 26 27 28 29 30 31 32 32 32 32 32 32 31 32 32 33 33 32 31 30 30 30 31 31 32 33 33 34 35 36 37 39 40 41 41 41 41 42 42 44 45 45 46 46 45 44 43 43 43 42
5 6 8 12 13 13 12 10 10 11 12 13 14 15 15 14 13 14 16 18 19 19 18 17 15 15 14 13 13 13 14 16 19 22 24 26 28 29 30 31 32 33 34 34 34 35 35 35 35 36 36 36 36 35 34 34 33 33 33 33 34 34 35 35 37 38 39 40 41 41 42 43 43 43 43 43 44 45 46 47 46 46 45 45 45
5 6 7 10 13 14 14 12 10 10 12 13 13 15 16 15 13 13 15 17 19 19 19 18 18 18 17 17 16 15 15 15 16 18 21 23 25 27 28 29 31 32 32 33 33 34 34 35 35 36 38 39 38 37 37 37 37 37 37 37 38 37 38 38 38 39 39 40 41 41 43 44 44 44 44 43 43 43 44 46 47 47 47 47 48
4 5 6 8 11 13 15 15 12 10 12 14 14 15 17 17 16 15 16 18 20 21 20 19 20 20 20 20 19 19 19 18 18 18 19 20 22 23 24 26 27 28 29 29 29 30 31 31 32 32 34 36 36 36 36 36 36 37 39 41 42 43 43 42 41 41 41 41 41 42 43 45 46 46 46 45 43 42 42 44 46 47 48 49 50
2 3 4 6 8 10 13 15 14 12 12 15 15 16 18 19 19 19 19 20 21 23 22 21 21 21 21 21 21 21 21 21 21 21 21 21 21 22 22 23 25 26 27 27 27 28 28 29 30 30 31 33 33 32 32 32 33 34 36 39 42 45 47 48 47 45 44 43 43 43 44 46 47 48 48 46 44 42 43 44 46 47 48 50 51
2 3 4 4 6 8 9 12 13 13 13 14 16 17 19 21 22 23 23 22 23 24 24 23 23 23 23 23 23 23 23 24 23 23 23 23 23 23 22 22 23 25 25 26 26 27 28 29 30 30 31 32 32 31 31 32 34 35 37 39 41 43 47 49 51 51 49 48 48 47 46 46 47 48 49 48 45 43 44 45 46 47 49 50 50
3 4 5 5 4 5 7 8 11 13 14 15 16 18 21 23 24 25 25 24 24 25 25 25 24 25 25 25 24 24 25 25 24 24 24 24 24 23 22 22 23 24 24 25 26 27 28 28 28 28 28 29 32 33 34 37 39 40 41 42 43 45 47 49 51 53 54 53 52 51 50 48 47 48 50 50 47 45 46 47 47 48 50 51 50
4 5 6 6 5 5 6 8 11 13 14 15 18 20 22 24 25 25 26 26 25 25 26 26 26 25 26 26 26 26 26 25 24 24 25 24 23 22 22 21 22 22 23 24 25 25 25 25 23 24 26 30 34 38 40 42 43 43 44 44 44 46 47 49 50 52 54 55 55 54 53 52 50 48 49 50 50 48 48 48 48 49 51 52 50
5 6 7 7 6 4 6 9 11 14 15 16 19 21 23 24 25 25 25 26 25 24 25 27 27 26 26 27 27 27 27 25 24 25 25 23 22 20 20 19 20 20 20 21 21 21 21 20 20 23 28 32 37 41 45 47 47 46 45 44 44 46 45 45 48 50 52 54 55 55 54 54 52 51 50 50 50 50 49 49 50 51 52 51 49
6 7 9 9 7 5 6 10 13 14 16 17 20 22 23 24 24 24 24 25 25 24 25 26 28 27 27 26 27 27 27 26 25 24 24 22 20 17 16 15 15 16 17 17 18 18 19 20 21 25 29 33 36 39 41 43 45 45 44 41 42 43 42 40 43 47 50 52 53 53 53 53 53 53 52 51 50 50 49 50 51 51 51 51 50
6 7 9 9 7 6 8 11 13 14 15 18 20 21 22 23 23 23 23 24 24 24 24 26 27 28 27 26 26 27 27 26 24 23 22 21 18 14 11 10 10 12 14 15 16 18 20 22 24 27 30 33 36 38 38 38 39 40 40 39 38 39 37 36 39 44 47 49 50 51 52 52 52 53 53 52 53 52 50 50 49 48 48 48 48
6 8 9 8 7 7 8 11 13 14 15 17 20 21 22 22 22 22 23 24 24 24 25 25 27 28 28 27 27 27 27 25 22 21 20 19 16 12 10 10 10 11 13 15 17 19 21 24 26 29 31 33 36 38 38 38 38 37 36 35 34 35 35 34 37 40 43 45 48 49 50 51 52 53 53 52 53 54 53 51 49 47 45 44 43
6 8 8 8 7 8 10 12 13 14 15 17 18 20 20 21 21 22 23 23 24 24 25 25 26 27 28 28 27 27 27 24 21 20 19 18 17 15 14 14 14 14 15 17 18 20 23 25 28 30 33 34 36 38 39 40 39 37 35 33 32 33 34 34 35 37 39 41 44 46 48 51 53 54 54 52 51 52 53 52 50 48 46 43 41
7 8 8 7 8 10 11 12 13 14 16 17 18 19 19 20 20 21 22 23 23 24 24 25 25 26 27 28 27 27 27 26 24 22 20 19 18 18 18 18 17 17 17 18 20 22 24 26 29 31 34 36 38 39 41 42 41 38 34 33 33 32 31 32 34 36 36 37 40 42 45 48 51 53 54 54 53 52 51 50 49 48 46 45 43
8 8 7 8 10 11 12 13 14 15 17 18 19 19 19 20 20 21 22 23 23 23 24 24 24 26 27 27 26 26 28 29 28 26 23 20 18 18 19 19 19 18 18 20 21 23 25 28 31 33 35 38 39 40 42 43 41 35 32 32 33 34 32 30 32 34 34 34 36 38 41 43 46 50 52 54 54 52 50 49 49 47 46 46 45
9 8 8 9 11 12 13 14 15 17 18 19 19 19 19 20 20 21 22 22 22 22 23 23 23 25 27 27 26 26 28 29 29 29 27 24 21 19 19 19 18 18 19 21 22 24 26 28 32 35 37 39 41 42 43 44 42 38 34 31 32 33 33 31 29 29 30 31 33 34 35 36 39 43 48 52 54 54 53 52 51 50 49 48 47
9 9 10 10 11 13 13 14 16 17 19 18 18 19 20 20 20 21 21 21 22 21 22 22 22 23 25 25 25 26 27 29 30 30 30 27 24 21 19 19 18 17 17 19 21 24 25 27 30 33 35 38 42 43 43 43 42 40 37 33 32 34 33 31 28 26 26 29 31 32 33 33 34 37 41 46 51 53 54 53 52 52 51 50 49
10 10 11 11 12 13 14 15 17 18 18 18 19 21 21 20 20 20 20 20 21 21 21 21 20 22 24 25 25 25 26 28 29 31 31 30 27 23 20 20 19 17 16 16 18 21 23 24 27 30 32 34 38 41 43 42 41 39 37 32 31 33 34 32 29 26 28 31 33 34 34 35 35 35 37 40 44 47 50 52 53 53 53 53 52
11 11 12 12 13 14 14 15 17 18 17 17 19 22 22 20 19 18 19 19 20 21 21 20 19 21 22 23 24 25 26 27 28 29 30 32 31 29 25 21 20 19 17 16 16 18 19 20 23 27 30 32 33 35 38 39 39 38 36 33 29 28 31 33 31 31 33 35 35 35 36 37 37 37 38 38 38 39 42 45 47 48 50 52 53
Wind_Direction
272 261 246 236 228 223 222 223 223 222 223 223 223 224 225 224 222 222 220 219 220 219 219 219 220 221 221 220 219 217 215 215 215 218 222 222 219 220 223 225 227 230 231 231 231 230 228 225 227 231 234 231 226 226 228 225 224 226 228 228 232 238 243 249 253 252 249 253 262 271 279 287 290 286 285 286 285 288 292 295 299 304 318 337 337
277 268 258 244 232 224 223 225 225 227 227 226 227 227 226 226 227 227 224 222 221 222 222 224 225 225 225 222 218 217 215 216 216 216 221 225 223 223 224 226 229 231 232 231 231 230 228 226 227 231 234 235 233 230 228 226 225 226 226 228 232 238 245 250 253 249 249 256 263 267 272 279 284 284 285 286 285 282 281 284 288 291 298 313 316
291 266 262 258 246 231 225 228 231 235 236 233 230 227 226 226 226 226 227 226 223 223 224 226 228 228 228 226 221 217 215 217 220 220 221 223 225 225 225 227 230 233 234 232 231 230 229 228 228 232 236 241 243 240 235 231 231 231 231 234 237 240 244 249 252 250 250 255 260 261 263 272 278 283 294 302 299 291 284 281 281 283 287 288 288
320 280 258 262 258 243 234 232 231 233 235 235 230 227 229 230 228 225 226 228 226 225 227 229 230 230 231 230 227 222 217 220 224 226 226 225 224 226 228 228 230 233 234 232 231 229 228 229 232 237 244 251 257 258 254 247 243 243 243 244 245 246 247 251 253 251 248 248 251 254 257 267 275 285 307 319 318 314 307 295 284 280 283 282 279
342 307 264 257 259 252 248 245 239 236 236 236 234 233 234 235 234 230 226 228 229 228 229 231 231 231 231 231 229 225 222 223 226 228 229 227 225 228 231 231 230 232 232 230 230 229 228 233 240 246 253 263 269 272 272 267 260 255 256 257 256 256 257 259 259 255 251 250 249 249 251 262 275 287 302 309 313 320 323 316 298 285 283 286 287
357 337 289 264 260 254 253 253 249 245 240 238 237 236 235 235 235 234 232 230 230 230 231 232 232 232 232 233 231 228 227 225 224 225 227 226 226 228 230 232 232 231 230 229 230 231 232 236 244 250 257 269 279 281 280 276 270 263 261 263 263 263 263 264 264 260 256 253 251 252 255 262 274 282 286 293 301 307 316 321 314 299 289 289 291
10 0 331 296 278 261 253 251 249 245 240 238 237 235 233 233 234 235 235 234 231 230 230 231 233 232 233 236 237 238 237 234 228 227 229 229 228 227 227 229 232 233 232 230 231 233 235 238 244 250 258 268 277 281 280 277 273 267 264 263 264 264 263 262 263 262 257 253 252 255 258 262 268 272 275 282 292 297 302 309 313 310 301 297 297
25 22 9 350 329 293 267 257 252 246 242 240 239 237 234 233 234 234 234 234 231 227 228 230 233 234 234 236 239 242 246 246 241 236 236 235 234 232 231 230 231 233 233 233 234 236 237 239 242 247 253 260 264 269 273 274 272 268 264 262 261 261 260 260 260 259 257 255 255 256 259 261 265 267 268 271 278 286 292 297 303 307 306 307 310
39 41 36 27 16 353 296 267 260 255 249 245 242 241 239 236 234 234 234 235 231 229 231 233 233 234 235 236 239 241 246 250 250 246 242 240 239 237 237 236 234 233 234 236 238 240 240 240 242 244 246 249 252 256 261 264 265 264 263 261 261 260 260 260 259 258 257 256 256 257 259 261 263 264 264 266 270 277 284 289 296 301 303 310 315
42 50 52 51 52 56 47 258 261 262 258 256 253 249 245 242 239 237 237 237 235 234 234 234 233 234 234 235 238 241 245 249 251 251 248 244 242 242 242 240 238 236 235 237 241 243 242 242 243 243 242 243 247 250 253 257 259 260 262 262 262 262 261 260 260 259 258 256 255 255 256 258 259 261 263 265 270 275 281 287 293 297 301 305 308
40 54 63 64 65 73 84 109 154 187 221 247 256 255 252 249 247 243 241 241 240 238 234 231 230 230 233 234 236 239 243 248 252 253 251 248 246 248 249 246 243 240 237 240 244 246 245 244 245 246 245 245 247 251 254 256 257 258 262 263 262 261 260 259 259 259 258 258 257 255 253 253 255 259 263 267 271 275 280 285 290 295 298 301 303
39 51 60 65 70 73 73 79 93 109 123 130 156 232 244 249 252 248 244 243 243 242 236 233 232 230 231 233 235 237 241 247 254 257 256 254 253 255 255 250 246 243 241 242 248 252 249 246 247 248 249 250 252 256 259 258 257 257 260 263 263 262 259 256 255 255 255 257 260 259 257 253 252 256 261 266 270 275 279 282 286 290 293 298 302
40 45 49 54 63 69 67 67 75 87 94 100 103 115 153 198 237 244 243 242 241 240 236 236 238 238 235 233 235 238 240 245 252 257 259 258 258 262 262 256 250 246 245 249 255 258 255 249 248 249 249 252 255 258 259 257 255 256 258 262 263 263 260 255 251 251 253 256 261 265 264 257 253 253 258 262 267 272 275 278 283 287 290 295 299
41 44 47 48 53 62 66 65 66 71 76 81 80 85 106 119 110 223 240 243 242 240 239 239 242 247 247 244 243 244 246 248 250 255 259 260 259 260 262 260 255 251 250 258 266 264 259 255 253 253 252 253 254 253 253 252 252 255 258 260 261 262 260 255 250 249 251 255 260 265 267 262 255 253 255 259 262 266 270 275 281 285 288 291 293
43 43 47 48 49 54 60 64 64 63 67 71 68 63 63 70 72 83 140 230 251 245 235 234 238 246 252 253 254 253 253 255 256 257 259 261 262 261 258 255 254 253 256 266 271 266 262 262 261 261 261 260 258 253 249 250 254 256 257 259 261 261 260 254 249 248 250 253 257 262 267 266 259 253 254 256 258 262 268 274 276 278 283 288 290
42 40 42 44 45 48 53 57 58 61 65 67 67 65 59 58 65 78 139 196 247 241 222 220 223 231 240 245 250 252 253 256 259 260 258 259 261 263 264 259 253 251 256 264 270 269 269 270 267 266 266 266 264 258 250 250 256 259 259 259 259 260 260 255 249 248 250 252 255 260 265 266 260 254 254 257 258 260 265 270 270 269 275 283 288
42 41 39 37 37 40 46 50 50 53 59 63 64 64 61 58 59 57 61 207 235 239 223 217 220 227 233 238 244 248 250 254 258 257 257 259 260 259 262 262 259 255 256 260 267 271 274 274 271 270 268 267 265 259 252 251 257 260 259 259 259 260 261 257 250 248 250 252 253 256 260 262 260 254 254 256 257 259 262 264 264 262 265 274 283
43 43 41 37 34 32 35 41 43 44 49 57 59 60 62 58 55 51 40 26 301 242 225 216 218 223 230 235 242 246 248 250 252 251 251 256 259 256 253 253 256 259 260 262 268 272 274 273 272 271 271 268 264 258 253 253 256 257 257 257 256 258 260 259 253 249 249 251 251 252 254 255 254 252 252 254 255 257 260 260 260 259 258 263 272
40 42 41 39 36 32 31 31 31 34 39 48 53 54 60 61 56 53 42 29 25 14 213 214 216 222 229 233 238 242 243 244 245 246 249 251 253 253 250 248 250 255 258 262 269 274 274 274 274 273 269 266 262 257 253 253 253 253 254 255 253 253 255 257 255 249 248 249 249 250 250 250 250 249 249 250 251 253 256 257 258 257 256 258 263
36 38 39 39 38 35 32 27 23 22 24 30 37 39 44 54 60 56 46 30 23 32 46 178 225 231 232 229 230 233 236 239 240 242 246 248 248 248 247 248 248 248 251 258 267 274 275 274 275 274 267 260 259 259 257 256 255 255 256 258 259 258 258 260 260 254 247 247 248 248 249 249 249 250 249 248 249 251 253 253 254 255 255 257 259
36 36 37 38 38 35 33 28 22 18 14 13 14 13 15 21 27 14 356 348 4 25 33 30 15 313 260 238 231 229 231 236 239 240 241 241 241 241 241 245 246 244 246 255 265 270 272 273 274 274 267 258 255 257 260 262 261 260 260 263 265 264 263 264 266 263 254 248 247 247 248 248 248 250 250 248 247 249 251 251 252 254 254 255 256
37 36 35 34 33 31 30 28 23 18 12 6 359 352 345 341 338 331 326 329 342 1 14 17 13 354 325 284 249 235 230 232 235 238 241 240 240 239 239 242 242 241 245 254 261 264 267 270 271 271 266 260 257 256 259 262 262 260 260 261 264 264 264 263 264 265 260 254 249 246 245 246 247 250 251 250 247 247 250 252 252 254 256 256 256
38 35 33 30 27 25 24 23 21 18 14 8 359 348 338 329 320 313 310 313 322 331 344 353 353 349 340 326 299 260 240 235 234 236 237 239 242 242 242 244 242 242 247 253 258 261 264 267 268 267 265 263 262 260 259 260 259 258 258 259 262 264 266 265 264 261 260 257 253 249 246 247 249 251 252 252 250 248 248 251 254 257 258 259 258
39 34 30 26 23 21 20 19 17 16 13 11 8 359 348 334 319 309 303 300 300 302 306 308 310 318 322 315 304 287 265 246 236 233 232 235 242 244 246 247 247 249 253 255 258 260 262 265 266 266 266 266 267 266 263 261 259 258 258 258 260 263 266 266 265 262 260 260 257 253 250 250 252 254 255 255 253 251 249 249 253 257 260 261 261
41 36 30 26 23 21 20 20 18 15 12 10 10 7 1 353 340 327 315 304 294 287 286 288 289 291 295 295 292 283 271 259 247 237 232 231 234 238 242 246 248 250 252 254 257 259 261 264 265 266 268 269 270 269 267 264 264 263 262 261 261 262 264 265 264 263 262 261 259 256 253 252 254 255 256 256 254 252 251 250 251 253 257 260 261
44 41 35 30 27 24 22 21 20 18 13 8 7 4 358 352 347 342 332 320 306 291 281 279 280 281 283 284 285 280 268 260 254 248 243 237 234 234 234 237 242 246 249 252 255 257 259 262 264 265 266 266 266 266 265 265 265 266 266 266 265 264 263 264 263 261 261 259 257 255 254 256 256 255 255 256 255 252 250 250 252 257 260 261 260
47 44 41 36 33 29 24 21 20 19 15 10 6 0 355 352 350 346 340 331 321 307 293 281 277 276 276 276 277 277 273 266 258 253 250 247 244 242 239 238 240 243 247 251 254 256 257 259 261 263 263 261 261 261 261 262 262 264 265 266 267 267 266 265 264 262 261 259 257 254 254 255 257 257 257 257 257 256 253 250 253 261 266 264 261
48 44 41 38 37 35 29 23 19 17 15 11 7 2 2 3 1 355 349 343 333 321 309 294 281 274 271 270 269 269 270 268 265 262 258 254 250 249 248 247 246 246 247 249 251 253 255 257 259 261 262 261 260 258 259 260 260 261 263 264 265 266 267 267 267 266 264 261 258 255 254 254 256 259 261 260 260 261 260 256 256 260 263 262 260
43 41 39 37 37 35 33 28 22 18 15 13 10 7 7 8 7 6 4 357 347 336 323 309 294 281 272 267 264 263 263 263 264 264 264 263 260 257 255 253 253 252 251 251 251 251 253 255 256 258 259 259 259 258 258 260 261 262 262 263 264 265 266 266 267 267 266 263 260 258 256 255 256 259 263 265 263 262 262 261 260 261 263 261 258
38 35 33 33 34 32 30 29 26 22 17 14 12 10 9 9 9 10 10 4 356 346 335 323 309 294 281 273 267 262 261 260 260 262 262 263 263 263 262 261 259 258 256 255 255 254 254 255 254 255 256 256 256 257 258 260 262 263 264 264 265 264 264 264 264 265 266 264 261 258 257 257 257 259 262 266 266 265 263 263 262 262 263 262 259
34 27 27 27 29 28 27 27 27 27 21 16 14 13 12 11 10 10 7 4 359 352 343 334 322 307 293 284 277 271 268 266 264 263 262 263 263 263 263 264 264 264 263 262 262 261 260 259 258 256 255 255 255 255 257 258 259 261 262 263 263 263 263 262 262 263 264 265 262 260 258 258 259 260 261 264 266 267 266 266 265 263 261 261 260
25 17 21 23 23 22 22 24 26 26 26 22 17 14 11 9 7 6 3 1 360 356 350 342 333 322 308 295 286 280 276 273 271 269 267 266 266 265 265 265 265 265 266 266 266 266 266 266 265 265 263 262 260 258 257 256 257 259 260 260 261 261 260 260 260 260 261 263 263 261 259 258 259 260 262 264 266 267 266 266 267 266 263 261 260
11 4 18 24 23 19 16 18 21 23 24 22 17 13 9 3 0 0 359 358 358 357 354 350 345 337 326 313 299 288 281 277 275 273 272 270 269 269 269 268 267 267 266 266 267 267 267 268 268 269 269 268 268 266 264 261 260 259 259 260 261 260 260 259 258 259 260 261 261 261 259 258 258 258 260 263 265 266 265 265 266 267 266 263 262
353 347 9 23 24 21 16 12 14 19 20 17 12 9 6 358 352 353 356 357 356 355 353 352 352 348 341 331 318 304 292 283 277 274 273 272 272 272 271 271 271 270 269 268 268 268 267 267 267 268 268 268 269 269 268 267 266 264 262 262 262 262 262 261 258 257 258 259 261 261 260 258 257 257 258 259 261 262 263 264 264 265 265 265 264
342 336 355 14 18 19 16 10 4 6 10 8 4 3 4 2 354 349 352 354 354 353 351 350 350 349 347 342 333 323 311 297 287 279 274 272 272 272 272 272 272 272 272 271 271 271 270 269 268 268 268 268 268 268 268 267 266 265 265 264 264 263 263 262 261 259 257 256 257 259 260 260 258 256 256 256 255 256 258 261 262 263 264 264 264
337 326 337 4 13 14 13 10 3 357 359 0 358 356 0 3 0 355 352 351 353 354 351 348 347 346 344 342 337 332 325 315 304 293 284 277 273 271 271 270 271 271 272 273 273 273 274 273 273 272 272 271 271 271 271 270 268 266 265 264 263 263 262 262 261 261 260 258 256 256 257 258 258 256 255 254 253 252 254 257 259 260 261 262 263
332 311 313 351 10 12 10 9 6 0 355 355 356 353 355 359 1 359 356 354 355 356 353 348 345 343 342 340 336 331 327 321 312 303 294 286 279 274 271 270 271 270 270 272 273 273 274 276 276 276 276 275 274 274 274 274 274 273 271 269 266 264 263 262 261 260 260 260 259 257 255 255 256 255 254 252 251 252 253 255 257 258 259 261 262
299 300 295 320 356 8 6 2 1 358 353 353 354 352 353 356 359 359 358 357 358 358 354 348 345 343 341 338 334 329 324 320 314 309 301 293 286 280 277 275 274 272 270 271 272 273 273 275 277 278 279 279 279 277 276 277 277 278 278 276 274 270 266 263 261 259 258 258 258 257 256 256 255 254 254 252 250 251 253 255 256 257 258 260 261
296 305 299 301 326 356 2 354 350 349 348 350 351 351 352 354 356 357 356 357 358 358 353 348 345 344 342 339 335 329 325 321 317 314 308 301 292 286 281 278 277 276 274 273 274 275 275 276 279 281 283 285 286 285 285 285 284 282 281 278 276 274 270 267 264 261 259 257 256 255 255 256 255 255 254 253 250 250 252 252 253 255 257 258 260
308 312 304 295 303 339 352 344 339 340 343 345 347 349 349 350 351 353 353 354 355 354 351 348 346 344 344 341 337 332 328 326 324 320 315 307 298 288 282 279 278 279 278 278 278 278 277 277 279 285 290 294 296 295 294 292 290 288 285 281 277 274 271 268 266 264 262 260 258 256 255 254 254 255 255 254 252 250 250 250 252 255 256 257 258
318 322 316 299 287 317 345 339 336 339 340 341 345 347 346 346 347 348 349 350 350 349 348 346 344 345 345 342 338 336 335 335 332 325 317 309 301 292 283 279 280 281 281 280 278 278 278 278 284 295 301 303 303 302 298 294 291 288 285 281 277 273 271 269 267 264 262 261 259 258 257 255 254 253 253 253 253 252 251 251 252 254 256 257 259
316 323 320 305 287 297 331 337 338 339 339 341 344 344 344 343 343 344 345 345 345 345 345 343 342 345 346 342 340 340 340 339 334 326 318 312 307 299 287 282 282 283 283 283 282 282 285 286 290 297 301 302 307 311 308 301 295 288 283 279 273 269 269 269 267 264 260 259 258 258 258 257 256 255 254 253 253 253 253 254 254 254 256 258 261
315 325 319 309 298 299 318 333 340 340 340 341 342 342 341 341 341 342 342 342 342 344 344 342 341 344 345 343 341 341 341 341 337 330 323 319 316 307 295 290 292 293 293 293 293 296 296 294 291 291 293 298 308 315 315 312 307 297 286 279 271 266 265 265 266 264 261 259 258 257 258 258 258 257 256 255 254 253 254 256 258 258 259 259 260
318 334 322 307 305 309 318 330 338 339 338 339 339 339 338 338 339 340 340 340 341 343 343 341 341 343 344 344 344 344 345 346 342 336 331 329 328 326 323 325 326 322 318 313 308 306 303 298 295 293 294 298 305 311 313 314 313 307 297 286 274 264 261 261 263 264 263 260 258 257 257 258 258 258 257 256 255 255 255 257 260 261 262 262 261
316 338 328 307 303 313 320 327 332 333 334 335 334 334 335 337 338 339 339 339 341 342 343 341 340 342 343 344 345 348 351 354 352 346 342 339 339 341 341 343 345 341 334 327 319 314 310 306 304 303 302 303 307 311 315 316 315 312 305 296 283 268 260 260 261 262 263 263 261 259 258 257 257 258 259 259 258 257 256 257 259 259 260 260 261
310 333 332 312 310 319 323 327 329 330 331 333 331 329 332 335 337 339 339 340 341 342 343 342 342 343 344 346 348 351 356 0 1 356 350 345 344 345 345 346 347 343 336 331 327 323 319 316 315 313 311 311 313 316 318 318 317 315 309 302 293 281 269 263 263 264 265 264 262 261 259 258 257 257 257 258 259 260 260 259 259 259 259 258 259
303 321 327 322 325 328 326 329 330 329 331 333 330 327 329 331 334 337 338 339 340 342 343 344 345 346 346 349 354 357 1 5 6 4 359 353 349 347 346 347 346 341 335 332 329 327 325 322 319 316 315 315 318 319 319 318 316 313 307 301 297 292 283 271 265 266 267 266 263 261 261 261 260 258 256 255 256 257 258 259 259 259 259 258 257
296 304 312 322 329 327 326 329 330 329 331 334 332 329 327 328 331 333 335 337 338 341 344 345 347 348 348 351 358 2 4 7 9 8 6 2 356 349 345 346 346 343 337 333 329 326 325 321 317 315 315 316 318 319 319 318 315 310 303 292 284 284 285 280 272 269 269 268 266 264 264 265 264 260 257 254 253 252 253 254 257 259 259 259 258
295 293 297 311 320 320 320 325 326 326 330 336 340 337 331 328 328 329 332 335 336 341 345 347 349 350 350 354 1 4 6 8 9 9 9 8 4 356 346 342 343 342 337 332 328 325 322 317 314 314 313 313 317 321 321 318 315 313 309 295 275 268 272 276 275 275 275 274 271 269 268 269 269 266 261 257 254 253 252 253 254 257 259 261 260
297 292 293 301 310 313 316 319 322 324 328 335 343 344 338 331 327 327 330 333 336 343 347 349 351 353 353 357 4 6 7 8 9 9 9 8 9 8 359 347 344 345 343 336 330 325 320 315 313 315 314 312 314 320 322 319 315 314 315 307 285 266 260 262 264 267 269 271 272 273 273 274 275 273 270 265 261 258 256 256 255 256 259 261 261
298 294 294 299 303 308 313 316 319 323 326 332 343 345 340 334 330 329 331 333 337 345 350 351 354 357 358 2 6 7 7 8 9 9 9 7 7 10 11 3 354 350 348 344 338 331 324 318 315 318 320 320 321 324 324 322 319 317 316 315 303 280 264 258 256 255 256 259 263 268 270 271 272 273 272 271 269 266 262 260 258 258 259 260 260